Estación Meteorológica Peña el Pijo (Robertgarden) [ 11/14/19 11:51:25 CET ]

Fecha Hora Presion(HPa) Temp (°C) Humedad % Rocio (°C) Viento ( m/s) Direccion Lluvia 1Hora(mm) Lluvia 24H(mm) LLuvia Total(mm)
2019-Jul-12 01:09:08 1011.400 - - - - NNW     342.62
2019-Jul-12 02:09:13 1011.500 - - - - NNW     342.62
2019-Jul-12 03:09:38 1011.200 - - - - NNW     342.62
2019-Jul-12 04:10:00 1011.200 - - - - NNW     342.62
2019-Jul-12 05:09:32 1011.500 - - - - NNW     342.62
2019-Jul-12 06:09:42 1011.400 - - - - NNW     342.62
2019-Jul-12 07:09:26 1011.700 - - - - NNW     342.62
2019-Jul-12 08:09:32 1012.000 - - - - NNW     342.62
2019-Jul-12 09:09:17 1011.900 - - - - NNW     342.62
2019-Jul-12 10:09:12 1011.700 - - - - NNW     342.62
2019-Jul-12 11:09:17 1011.600 - - - - NNW     342.62
2019-Jul-12 12:09:00 1011.700 - - - - NNW     342.62
2019-Jul-12 13:09:00 1011.400 - - - - NNW     342.62
2019-Jul-12 14:09:15 1011.200 - - - - NNW     342.62
2019-Jul-12 15:08:42 1010.800 - - - - NNW     342.62
2019-Jul-12 16:09:00 1010.900 - - - - NNW     342.62
2019-Jul-12 17:08:56 1010.900 - - - - NNW     342.62
2019-Jul-12 18:09:06 1010.700 - - - - NNW     342.62
2019-Jul-12 19:08:52 1010.900 - - - - NNW     342.62
2019-Jul-12 20:09:04 1010.700 - - - - NNW     342.62
2019-Jul-12 21:08:53 1010.800 - - - - NNW     342.62
2019-Jul-12 22:09:15 1010.700 - - - - NNW     342.62
2019-Jul-12 23:09:17 1011.600 - - - - NNW     342.62

Temperatura Máxima:    Temperatura Mínima:
Presión Máxima:1012.000 Hpa    Presión Mínima:1010.700 Hpa


Volver